This is the latest recevied weather packets stored in our database for station/object DM4XI-13. If no packets are shown the sender has not sent any weather packets the latest 10 day(s).
| Time | Temp. | Humidity | Pressure | Rain* | Wind** | Luminosity | Snow |
|---|---|---|---|---|---|---|---|
| 1777414456 | 10.56° C | 44% | 1018.7 hPa | 0 mm | 0 m/s | 0 W/m² | - |
| 1777414395 | 10.56° C | 44% | 1018.8 hPa | 0 mm | 0.45 m/s, 290° | 0 W/m² | - |
| 1777414334 | 10.56° C | 44% | 1018.8 hPa | 0 mm | 0.45 m/s, 247° | 0 W/m² | - |
| 1777414273 | 10.56° C | 44% | 1018.7 hPa | 0 mm | 0.45 m/s, 292° | 0 W/m² | - |
| 1777414212 | 10.56° C | 44% | 1018.6 hPa | 0 mm | 0.89 m/s, 25° | 0 W/m² | - |
| 1777414150 | 10.56° C | 44% | 1018.6 hPa | 0 mm | 1.34 m/s, 313° | 0 W/m² | - |
| 1777414089 | 10.56° C | 44% | 1018.8 hPa | 0 mm | 0.89 m/s, 9° | 0 W/m² | - |
| 1777414028 | 10.56° C | 44% | 1018.7 hPa | 0 mm | 0.45 m/s, 16° | 0 W/m² | - |
| 1777413967 | 10.56° C | 44% | 1018.6 hPa | 0 mm | 1.34 m/s, 316° | 0 W/m² | - |
| 1777413907 | 10.56° C | 44% | 1018.8 hPa | 0 mm | 0.45 m/s, 7° | 0 W/m² | - |
| 1777413846 | 10.56° C | 44% | 1018.7 hPa | 0 mm | 1.34 m/s, 30° | 0 W/m² | - |
| 1777413785 | 10.56° C | 44% | 1018.8 hPa | 0 mm | 0.89 m/s, 37° | 0 W/m² | - |
| 1777413724 | 10.56° C | 44% | 1018.7 hPa | 0 mm | 1.79 m/s, 334° | 0 W/m² | - |
| 1777413663 | 10.56° C | 44% | 1018.7 hPa | 0 mm | 1.34 m/s, 330° | 0 W/m² | - |
| 1777413602 | 10.56° C | 44% | 1018.7 hPa | 0 mm | 1.79 m/s, 5° | 0 W/m² | - |
| 1777413541 | 10.56° C | 44% | 1018.6 hPa | 0 mm | 1.34 m/s, 7° | 0 W/m² | - |
| 1777413480 | 10.56° C | 45% | 1018.7 hPa | 0 mm | 0 m/s | 0 W/m² | - |
| 1777413419 | 10.56° C | 44% | 1018.7 hPa | 0 mm | 1.34 m/s, 49° | 0 W/m² | - |
| 1777413358 | 10.56° C | 44% | 1018.7 hPa | 0 mm | 0.45 m/s, 0° | 0 W/m² | - |
| 1777413297 | 11.11° C | 44% | 1018.7 hPa | 0 mm | 1.79 m/s, 344° | 0 W/m² | - |
| 1777413236 | 11.11° C | 44% | 1018.7 hPa | 0 mm | 1.34 m/s, 341° | 0 W/m² | - |
| 1777413175 | 11.11° C | 44% | 1018.6 hPa | 0 mm | 0.45 m/s, 37° | 0 W/m² | - |
| 1777413114 | 11.11° C | 44% | 1018.7 hPa | 0 mm | 0.89 m/s, 261° | 0 W/m² | - |
| 1777413053 | 10.56° C | 44% | 1018.7 hPa | 0 mm | 1.79 m/s, 25° | 0 W/m² | - |
| 1777412992 | 10.56° C | 44% | 1018.5 hPa | 0 mm | 0.89 m/s, 329° | 0 W/m² | - |
* Rain latest hour (hover to see other rain measurements)
** Current wind speed in m/s (hover to see current wind gust speed)